SPACEWAY 3

Last updated on Sat Apr 20 2024 00:02:36 GMT+0000 (Coordinated Universal Time)

1 32018U 07036A 24110.52392483 -.00000169 00000+0 00000+0 0 9999 2 32018 1.9472 86.2168 0002266 353.6230 254.3443 0.99139152 38632
UTC large
Height (km)
Speed (km/s)
/
Latitude / Longitude
Inclination (degrees)
Orbital Period (minutes)
Azimuth
Elevation
Range (km)
Doppler Factor

Next 0 passes for location: London (51.5072 / 0.1276)

Sorry there are no passes over London.
SPACEWAY 3